User: anonymous   Login
Location: Rometta
(44.2000°N, 10.0500°E)
Time: 15:31:03
(UTC+00:00)
Language:

SL-24 R/B - Orbit

View from above orbital plane
View from above orbital plane
View from above satellite
View from above satellite

Ground track
Ground track

The orbit data is extracted from the following two-line orbital elements,

1 31123U 07012G   21104.57476588 -.00000049  00000-0 -28116-5 0  9996
2 31123  98.0067 106.8582 0313269 135.0351 338.8140 14.12617904721365
Epoch (UTC): 14 April 2021 13:47:39
Eccentricity: 0.0313269
inclination: 98.0067°
perigee height: 624 km
apogee height: 1077 km
right ascension of ascending node: 106.8582°
argument of perigee: 135.0351°
revolutions per day: 14.12617904
mean anomaly at epoch: 338.8140°
orbit number at epoch: 72136

The dashed part of the orbit path shows where the satellite is in the earth's shadow,  

DLR